TURKMENALEM52E/MONACOSAT

Last updated on Sept. 20, 2020, 5:45 a.m. UTC

1 40617U 15023A   20263.75604872  .00000089  00000-0  00000+0 0  9997
2 40617   0.0150 124.7606 0003257  58.7349 139.8127  1.00272175 19809
UTC
Height (km)
Latitude
Longitude
Inclination
Orbital Period
UTC large
Height (km)
Speed (km/s)
/
Latitude / Longitude
Inclination (degrees)
Orbital Period (minutes)
Azimuth
Elevation
Range (km)
Doppler Factor
iOS Compass Heading
iOS Angle

Next 30 passes for location: Hong Kong

Rise time Rise Azimuth (degrees) Set time Set Azimuth (degrees) Duration Max altitude (degrees)

No matching passes for this satellites